This is the latest recevied weather packets stored in our database for station/object W4JCW. If no packets are shown the sender has not sent any weather packets the latest 10 day(s).
| Time | Temp. | Humidity | Pressure | Rain* | Wind** | Luminosity | Snow |
|---|---|---|---|---|---|---|---|
| 1778015841 | 26.67° C | 39% | 1012.9 hPa | 0 mm | - | 377 W/m² | - |
| 1778015538 | 27.22° C | 39% | 1012.9 hPa | 0 mm | - | 344 W/m² | - |
| 1778015234 | 27.78° C | 39% | 1012.8 hPa | 0 mm | - | 154 W/m² | - |
| 1778014931 | 27.78° C | 39% | 1012.9 hPa | 0 mm | - | 498 W/m² | - |
| 1778014629 | 27.78° C | 38% | 1012.7 hPa | 0 mm | - | 414 W/m² | - |
| 1778014327 | 27.78° C | 37% | 1012.9 hPa | 0 mm | - | 233 W/m² | - |
| 1778014023 | 27.78° C | 37% | 1013.2 hPa | 0 mm | - | 543 W/m² | - |
| 1778013721 | 27.78° C | 37% | 1013.1 hPa | 0 mm | - | 647 W/m² | - |
| 1778013418 | 27.78° C | 38% | 1012.9 hPa | 0 mm | - | 635 W/m² | - |
| 1778013114 | 27.78° C | 38% | 1013.2 hPa | 0 mm | - | 665 W/m² | - |
| 1778012810 | 26.67° C | 39% | 1013.1 hPa | 0 mm | - | 723 W/m² | - |
| 1778012506 | 26.67° C | 38% | 1013.1 hPa | 0 mm | - | 371 W/m² | - |
| 1778012203 | 27.22° C | 38% | 1013.1 hPa | 0 mm | - | 509 W/m² | - |
| 1778011901 | 27.22° C | 37% | 1013.2 hPa | 0 mm | - | 385 W/m² | - |
| 1778011599 | 27.78° C | 39% | 1013 hPa | 0 mm | - | 233 W/m² | - |
| 1778011296 | 27.78° C | 37% | 1013.2 hPa | 0 mm | - | 554 W/m² | - |
| 1778010992 | 27.78° C | 37% | 1013.2 hPa | 0 mm | - | 533 W/m² | - |
| 1778010689 | 27.78° C | 37% | 1013.6 hPa | 0 mm | - | 716 W/m² | - |
| 1778010386 | 27.22° C | 39% | 1013.6 hPa | 0 mm | - | 757 W/m² | - |
| 1778010082 | 27.78° C | 39% | 1013.5 hPa | 0 mm | - | 270 W/m² | - |
| 1778009779 | 27.78° C | 40% | 1013.8 hPa | 0 mm | - | 731 W/m² | - |
| 1778009476 | 27.22° C | 40% | 1013.6 hPa | 0 mm | - | 828 W/m² | - |
| 1778009175 | 27.22° C | 39% | 1013.8 hPa | 0 mm | - | 848 W/m² | - |
| 1778008872 | 27.22° C | 40% | 1013.8 hPa | 0 mm | - | 887 W/m² | - |
| 1778008570 | 27.78° C | 39% | 1014 hPa | 0 mm | - | 946 W/m² | - |
* Rain latest hour (hover to see other rain measurements)
** Current wind speed in m/s (hover to see current wind gust speed)